Weather History for CWAR - October, 2011

Change the Weather History Date:

Sunday, October 30, 2011

  Actual Average Record
Temperature  
Mean Temperature 38 °F -  
Max Temperature 43 °F - - ()
Min Temperature 34 °F - - ()
Degree Days  
Heating Degree Days 26    
Moisture  
Dew Point 34 °F    
Average Humidity 83    
Maximum Humidity 97    
Minimum Humidity 65    
Precipitation  
Precipitation 0.28 in - - ()
Sea Level Pressure  
Sea Level Pressure 29.88 in    
Wind  
Wind Speed 12 mph ()    
Max Wind Speed 37 mph    
Max Gust Speed 48 mph    
T = Trace of Precipitation, MM = Missing Value Source: Averaged Metar Reports

Daily Weather History Graph

Daily Weather History Graph

Search for Another Location

Airport or City:

Trip Planner

Search our weather history database for the weather conditions in past years. The results will help you decide how hot, cold, wet, or windy it might be!

Date:

Astronomy

Oct. 30, 2011 Rise Set
Actual Time 7:45 AM NDT 5:52 PM NDT
Civil Twilight 7:13 AM NDT 6:24 PM NDT
Nautical Twilight 6:37 AM NDT 7:00 PM NDT
Astronomical Twilight 6:02 AM NDT 7:36 PM NDT
Moon 12:12 PM NDT (10/30) 9:03 PM NDT (10/30)
Length of Visible Light 11h 10m
Length of Day
10h 06m
Waxing Crescent, 19% of the Moon is Illuminated
Oct 30
Waxing Crescent
Nov 2
First Quarter
Nov 10
Full
Nov 18
Last Quarter
Nov 25
New

Hourly Weather History & Observations

Time (NDT) Temp. Windchill Dew Point Humidity Pressure Visibility Wind Dir Wind Speed Gust Speed Precip Events Conditions
12:30 AM 40 °F - 32 °F 65% 30.18 in - NNW 9.2 mph - -  
12:30 AM 39.7 °F 33.7 °F 31.6 °F 73% 30.18 in - NNW 9.2 mph - N/A   Unknown
1:30 AM 38.3 °F 31.9 °F 31.5 °F 76% 30.18 in - North 9.2 mph - N/A   Unknown
2:30 AM 38.5 °F 32.1 °F 31.3 °F 75% 30.17 in - North 9.2 mph - N/A   Unknown
3:30 AM 37 °F - 32 °F 74% 30.18 in - ESE 3.5 mph - -  
3:30 AM 37.0 °F 34.5 °F 31.6 °F 81% 30.18 in - ESE 3.5 mph - N/A   Unknown
4:30 AM 36.0 °F 30.3 °F 31.1 °F 82% 30.16 in - East 6.9 mph - N/A   Unknown
5:30 AM 35.6 °F 29.9 °F 30.6 °F 82% 30.14 in - ENE 6.9 mph - N/A   Unknown
6:30 AM 36 °F - 32 °F 79% 30.10 in - ENE 9.2 mph - -  
6:30 AM 36.1 °F 29.3 °F 31.8 °F 84% 30.10 in - ENE 9.2 mph - N/A   Unknown
7:30 AM 36.3 °F 28.9 °F 31.5 °F 83% 30.07 in - ENE 10.4 mph - N/A   Unknown
8:30 AM 37.8 °F 29.8 °F 31.6 °F 79% 30.07 in - East 12.7 mph - N/A   Unknown
9:30 AM 38 °F - 33 °F 74% 30.10 in - ESE 12.7 mph - -  
9:30 AM 38.1 °F 30.2 °F 31.3 °F 76% 30.10 in - ESE 12.7 mph - N/A   Unknown
10:30 AM 39.0 °F 31.0 °F 33.4 °F 80% 30.05 in - East 13.8 mph - N/A   Unknown
11:30 AM 40.3 °F 31.0 °F 34.3 °F 79% 30.01 in - ESE 19.6 mph - N/A   Unknown
12:30 PM 42 °F - 35 °F 68% 29.98 in - East 13.8 mph - -  
12:30 PM 42.3 °F 35.1 °F 35.1 °F 76% 29.98 in - East 13.8 mph 21.9 mph N/A   Unknown
1:30 PM 42.6 °F 34.9 °F 33.8 °F 71% 29.93 in - East 16.1 mph 23.0 mph N/A   Unknown
2:30 PM 41.9 °F 33.4 °F 34.2 °F 74% 29.86 in - East 18.4 mph 28.8 mph N/A   Unknown
3:30 PM 38 °F - 36 °F 90% 29.82 in - East 16.1 mph - -  
3:30 PM 38.5 °F 29.6 °F 36.1 °F 91% 29.82 in - East 16.1 mph - N/A   Unknown
4:30 PM 37.8 °F 28.0 °F 36.1 °F 94% 29.78 in - ENE 18.4 mph - 0.05 in   Unknown
5:30 PM 37.4 °F 27.2 °F 36.1 °F 95% 29.68 in - ENE 19.6 mph - 0.06 in   Unknown
6:30 PM 38.1 °F 27.6 °F 36.5 °F 94% 29.57 in - ENE 21.9 mph 31.1 mph 0.02 in   Unknown
7:30 PM 38.5 °F 26.9 °F 37.4 °F 96% 29.49 in - ENE 27.6 mph 38.0 mph 0.04 in   Unknown
8:30 PM 39.4 °F 27.5 °F 38.5 °F 97% 29.37 in - East 31.1 mph 48.3 mph 0.07 in   Unknown
9:30 PM 40 °F - 39 °F 96% 29.32 in - East 32.2 mph - -  
9:30 PM 39.9 °F 28.0 °F 39.2 °F 97% 29.32 in - East 32.2 mph 43.7 mph 0.03 in   Unknown
10:30 PM 40.1 °F 27.5 °F 39.0 °F 96% 29.27 in - East 36.8 mph 44.9 mph N/A   Unknown
11:30 PM 40.3 °F 28.1 °F 38.8 °F 95% 29.22 in - East 34.5 mph 44.9 mph 0.06 in   Unknown